Tracking 28126 objects as of 1-Oct-2023
HD Live streaming from Space Station
objects crossing your sky now

DELTA 1 DEB

Track DELTA 1 DEB now!
10-day predictions


NORAD ID: 27727
Int'l Code: 1976-077FS
Perigee: 1,493.2 km
Apogee: 2,172.9 km
Inclination: 102.6 °
Period: 123.3 minutes
Semi major axis: 8204 km
RCS: 0.0294 m2 (small)
Launch date: July 29, 1976
Source: United States (US)
Launch site: AIR FORCE WESTERN TEST RANGE (AFWTR)

Note: This is SATELLITE DEBRIS
Your satellite tracking list
Your tracking list is empty




NASA's NSSDC Master Catalog

Two Line Element Set (TLE):
1 27727U 76077FS  23273.71404784 -.00000027  00000-0  20317-3 0  9990
2 27727 102.6205  77.2971 0414274 279.3119  88.8637 11.68318278993512
Source of the keplerian elements: AFSPC